Vorticity
nan nan nan nan nan nan nan nan nan nan nan nan nan nan nan nan nan nan nan nan nan nan nan nan nan nan nan nan nan nan nan nan nan nan nan nan nan nan nan nan nan nan nan nan
nan 8 11 11 11 6 2 8 6 9 15 7 12 10 15 11 9 6 4 5 7 8 8 7 7 7 7 6 6 7 5 5 5 5 7 9 10 9 10 10 11 9 8 nan
nan 13 14 5 6 11 5 3 2 5 11 10 9 14 13 9 8 10 8 9 12 10 7 8 7 5 7 7 7 7 7 5 6 5 3 6 7 8 9 10 11 11 9 nan
nan 13 12 7 1 8 8 11 2 2 9 14 5 11 10 18 12 7 7 8 9 7 8 9 8 6 7 8 7 8 7 7 7 7 5 5 5 7 7 8 8 10 10 nan
nan 13 10 8 13 2 8 13 14 9 5 4 5 10 14 14 11 12 9 7 8 9 8 9 9 6 5 7 8 8 9 7 8 8 6 5 4 7 9 11 10 8 9 nan
nan 7 14 11 14 4 6 10 11 11 11 8 10 1 8 13 12 12 10 9 8 9 8 8 9 9 8 6 8 9 9 8 8 8 8 7 5 4 5 8 8 8 9 nan
nan 15 10 15 12 13 7 1 5 9 10 10 13 8 8 5 16 15 12 8 9 8 9 9 9 8 8 8 6 8 8 8 9 8 7 7 8 7 6 5 7 7 7 nan
nan 13 5 11 15 11 10 1 8 10 9 15 9 8 15 11 9 14 11 14 10 10 11 10 8 8 9 9 7 8 7 6 8 9 8 7 6 6 9 8 8 8 9 nan
nan 7 8 8 8 13 16 12 1 4 9 15 8 3 13 21 11 13 13 14 14 11 9 10 10 9 8 10 9 7 6 8 8 7 6 8 8 7 8 9 7 8 9 nan
nan 12 6 9 14 14 9 10 5 7 9 5 11 12 13 8 9 9 15 13 13 13 10 10 11 12 10 9 9 10 9 8 7 7 7 9 9 7 7 8 8 7 8 nan
nan 8 3 12 16 12 10 5 8 11 7 6 10 10 13 13 10 6 9 12 12 11 9 9 7 11 12 10 11 10 10 9 7 8 9 8 8 8 7 7 9 8 8 nan
nan 8 13 7 8 11 14 15 16 13 7 3 5 10 12 13 10 13 11 9 11 11 10 10 10 9 11 12 10 10 9 9 9 9 9 8 8 9 8 7 8 9 8 nan
nan 7 7 12 14 10 8 5 10 15 22 17 -2 4 11 9 9 11 9 11 16 14 11 11 12 12 10 10 11 10 10 9 9 9 9 9 9 9 9 7 8 9 9 nan
nan 11 11 2 -2 2 2 1 4 11 9 19 17 8 6 6 8 11 11 12 11 14 17 13 10 12 10 11 11 10 9 10 10 10 10 9 9 8 9 9 8 9 9 nan
nan 8 9 5 2 4 4 2 6 9 5 5 10 10 9 15 12 10 8 7 14 15 13 13 11 10 9 9 11 12 11 11 10 10 9 9 9 9 9 10 9 8 9 nan
nan 8 8 20 23 12 7 13 17 18 16 7 8 7 8 14 17 13 12 14 15 12 12 14 12 10 11 10 10 10 11 12 9 9 9 9 10 10 9 9 10 9 9 nan
nan 8 11 13 10 15 28 26 17 11 20 27 18 8 10 11 8 9 9 11 12 15 21 20 16 12 11 10 10 12 9 10 10 9 10 10 10 10 9 9 9 10 9 nan
nan 8 7 10 13 9 13 15 14 1 1 13 10 13 20 11 -0 -1 6 8 11 12 22 29 23 15 13 11 7 12 14 11 10 9 10 10 10 10 10 10 9 9 10 nan
nan 8 8 13 10 10 9 -1 3 2 1 4 9 11 14 14 10 -2 2 13 13 14 18 23 24 17 18 15 13 11 10 10 10 10 9 10 9 9 9 9 8 9 9 nan
nan 8 10 10 11 5 -3 3 15 12 -1 2 9 9 18 22 11 -0 1 12 14 16 20 24 21 16 14 15 15 12 11 9 11 11 10 10 10 10 9 10 9 9 9 nan
nan 9 11 7 8 2 -3 20 22 11 4 1 7 9 12 14 8 5 5 11 14 13 14 20 20 18 17 16 11 9 11 10 9 13 13 11 11 10 9 10 11 11 10 nan
nan 10 12 13 11 -3 2 22 17 10 6 6 9 10 7 7 10 11 9 8 9 11 12 18 17 14 16 20 18 13 7 12 15 13 12 11 10 9 12 11 10 11 11 nan
nan 13 11 10 11 5 8 16 8 8 8 8 7 8 11 8 8 11 9 7 9 10 10 11 13 12 14 18 17 12 14 14 15 14 12 11 12 12 11 10 9 10 10 nan
nan 12 12 8 5 14 17 14 5 7 10 8 10 10 11 9 6 9 10 9 8 7 8 9 8 9 10 11 13 12 14 15 15 13 13 14 14 12 11 13 12 10 11 nan
nan 6 14 14 11 12 1 -1 8 11 12 13 12 11 8 9 11 9 7 8 10 7 7 9 8 7 8 11 10 11 13 13 11 11 12 13 14 13 11 10 14 15 12 nan
nan nan nan nan nan nan nan nan nan nan nan nan nan nan nan nan nan nan nan nan nan nan nan nan nan nan nan nan nan nan nan nan nan nan nan nan nan nan nan nan nan nan nan nan
CAPE
0 0 0 0 0 0 0 0 0 0 0 33 40 70 493 177 64 9 0 0 0 0 0 57 57 80 78 0 0 0 0 0 0 0 0 0 28 13 46 113 405 515 645 699
0 0 0 0 0 0 0 0 0 0 0 17 21 28 520 285 160 115 90 60 32 15 1 36 55 30 81 0 0 0 0 0 0 0 0 0 0 0 0 29 352 551 808 689
0 0 0 0 0 0 0 0 0 0 0 0 15 5 224 394 273 125 92 81 81 104 85 28 35 49 19 6 0 0 0 0 0 0 0 0 0 0 0 11 189 403 672 1010
0 0 0 0 0 0 0 0 0 0 0 0 0 0 0 348 319 225 171 126 69 86 102 70 40 42 3 0 0 0 0 0 0 0 6 40 27 25 0 0 4 426 592 836
0 0 0 0 0 0 0 0 0 0 0 0 0 0 0 83 321 304 229 153 122 81 115 100 70 43 47 0 0 0 0 0 0 0 10 23 0 0 0 0 0 151 547 699
0 0 0 0 0 0 0 0 0 0 0 0 0 0 0 0 162 367 339 276 213 132 133 140 78 46 24 0 0 0 0 0 0 0 0 0 0 0 0 0 0 0 313 616
0 0 0 0 0 0 0 0 0 0 0 0 0 0 0 0 9 186 335 370 337 251 156 140 105 69 42 21 0 0 0 0 0 0 0 0 0 0 0 0 0 0 0 410
0 0 0 0 0 0 0 0 0 0 0 0 0 0 0 0 0 102 157 301 288 311 233 183 124 118 93 67 31 11 0 0 0 0 0 0 0 0 0 0 0 0 0 120
0 0 0 0 0 0 0 0 0 0 0 0 0 0 0 0 0 0 27 68 188 281 260 246 240 168 139 99 31 26 3 0 0 0 0 1 0 0 0 0 0 0 0 48
0 0 0 0 0 0 0 0 0 0 0 0 0 0 0 0 0 0 0 0 61 240 237 195 202 219 182 155 97 0 23 3 30 14 6 26 19 0 0 0 0 0 0 19
0 0 0 0 0 0 0 0 0 0 0 0 0 0 0 0 0 0 1 29 84 181 213 76 42 137 171 213 174 32 23 10 17 62 80 93 112 77 54 0 0 0 0 0
0 2 0 0 0 0 0 0 0 0 0 0 0 0 0 0 0 0 0 10 137 155 126 122 91 75 78 165 189 79 52 49 113 154 171 186 198 193 141 94 16 0 0 0
3 20 0 0 0 0 0 0 0 0 0 0 0 0 0 0 0 0 0 0 4 87 138 113 104 114 121 36 103 101 64 84 146 242 240 252 266 280 249 210 160 99 109 61
18 0 0 0 0 0 0 0 0 0 0 0 0 0 0 0 0 0 0 0 0 68 127 131 112 94 189 77 72 142 107 80 125 207 353 350 377 397 450 455 437 134 90 183
0 0 0 0 0 0 0 0 0 0 0 0 0 0 0 0 0 0 0 0 0 0 75 126 191 89 113 142 73 216 228 161 138 186 408 473 461 424 429 571 895 919 324 188
0 0 4 2 0 0 0 0 0 0 0 0 0 0 0 0 0 0 0 0 0 0 0 48 225 274 137 180 134 267 429 424 360 293 364 507 626 619 563 435 393 635 1034 923
0 1 22 0 0 0 0 0 0 0 0 0 0 0 0 0 0 0 0 0 0 0 0 0 42 215 181 234 230 320 492 573 582 519 504 525 624 856 883 906 834 571 512 851
0 0 31 0 0 0 0 0 0 0 0 0 0 0 0 0 0 0 0 0 0 0 0 0 0 214 259 274 284 346 449 626 726 676 710 805 842 884 1060 1237 1250 1221 1009 727
0 0 36 0 0 0 0 0 0 0 0 0 0 0 0 0 0 0 0 0 0 0 1 31 54 215 259 278 269 361 529 634 939 959 991 1040 1107 1126 1205 1381 1560 1619 1621 1478
0 0 8 14 1 125 11 0 0 0 0 0 0 0 0 0 0 0 0 0 0 0 1 498 50 157 202 234 256 385 608 742 1079 1243 1324 1412 1434 1533 1568 1530 1588 1811 1935 2004
37 36 8 4 16 17 2 0 0 0 0 0 0 0 0 0 0 0 0 0 0 0 0 598 548 130 207 310 333 413 563 786 964 1200 1542 1690 1805 1800 1857 1923 2004 1997 2093 2205
31 6 19 12 15 26 1 0 0 0 0 0 0 0 0 0 0 0 0 0 0 0 0 7 1144 1326 763 237 482 476 528 513 616 863 1378 1703 1837 2037 2090 2114 2251 2413 2376 2431
19 19 3 5 9 12 1 6 0 0 0 0 0 0 0 0 0 0 0 0 0 0 0 0 5 599 987 1499 1370 1485 1449 733 1029 842 1042 1142 1739 2046 2222 2391 2473 2540 2654 2749
11 8 8 3 1 10 0 0 0 0 0 0 0 0 0 0 0 0 0 0 0 0 0 0 0 0 0 467 838 1152 1644 2050 1628 1456 1476 1598 1404 1462 1815 2246 2492 2680 2782 2855
13 8 5 2 1 8 3 7 0 0 0 0 0 0 0 0 0 0 0 0 0 0 0 0 0 0 0 0 331 509 621 696 1235 1614 1867 2177 1909 1577 2035 1595 1169 2262 2355 2091
24 3 3 3 1 4 2 16 2 0 0 0 0 0 0 0 0 0 0 0 0 0 0 0 0 0 0 0 0 33 415 458 548 735 904 834 1196 2176 1283 91 0 0 1 2